Probability
0 0 0 0 0 0 0 0 0 0 0 0 0 0 0 0 0 0 0 0 0 0 0 0 0 0 0 0 0 0 0 0 0 0 0 0 0 0 0 0 0 0 0 0
0 0 0 0 0 0 0 0 0 0 0 0 0 0 0 0 0 0 0 0 0 0 0 0 0 0 0 0 0 0 0 0 0 0 0 0 0 0 0 0 0 0 0 0
0 0 0 0 0 0 0 0 0 0 0 0 0 0 0 0 0 0 0 0 0 0 0 0 0 0 0 0 0 0 0 0 0 0 0 0 0 0 0 0 0 0 0 0
0 0 0 0 0 0 0 0 0 0 0 0 0 0 0 0 0 0 0 0 0 0 0 0 0 0 0 0 0 0 0 0 0 0 0 0 0 0 0 0 0 0 0 0
0 0 0 0 0 0 0 0 0 0 0 0 0 0 0 0 0 0 0 0 0 0 0 0 0 0 0 0 0 0 0 0 0 0 0 0 0 0 0 0 0 0 0 0
0 0 0 0 0 0 0 0 0 0 0 0 0 0 0 0 0 0 0 0 0 0 0 0 0 0 0 0 0 0 0 0 0 0 0 0 0 0 0 0 0 0 0 0
0 0 0 0 0 0 0 0 0 0 0 0 0 0 0 0 0 0 0 0 0 0 0 0 0 0 0 0 0 0 0 0 0 0 0 0 0 0 0 0 0 0 0 0
0 0 0 0 0 0 0 0 0 0 0 0 0 0 0 0 0 0 0 0 0 0 0 0 0 0 0 0 0 0 0 0 0 0 0 0 0 0 0 0 0 0 0 0
0 0 0 0 0 0 0 0 0 0 0 0 0 0 0 0 0 0 0 0 0 0 0 0 0 0 0 0 0 0 0 0 0 0 0 0 0 0 0 0 0 0 0 0
0 0 0 0 0 0 0 0 0 0 0 0 0 0 0 0 0 0 0 0 0 0 0 0 0 0 0 0 0 0 0 0 0 0 0 0 0 0 0 0 0 0 0 0
0 0 0 0 0 0 0 0 0 0 0 0 0 0 0 0 0 0 0 0 0 0 0 0 0 0 0 0 0 0 0 0 0 0 0 0 0 0 0 0 0 0 0 0
0 0 0 0 0 0 0 0 0 0 0 0 0 0 0 0 0 0 0 0 0 0 0 0 0 0 0 0 0 0 0 0 0 0 0 0 0 0 0 0 0 0 0 0
0 0 0 0 0 0 0 0 0 0 0 0 0 0 0 0 0 0 0 0 0 0 0 0 0 0 0 0 0 0 0 0 0 0 0 0 0 0 0 0 0 0 0 0
0 0 0 0 0 0 0 0 0 0 0 0 0 0 0 0 0 0 0 0 0 0 0 0 0 0 0 0 0 0 0 0 0 0 0 0 0 0 0 0 0 0 0 0
0 0 0 0 0 0 0 0 0 0 0 0 0 0 0 0 0 0 0 0 0 0 0 0 0 0 0 0 0 0 0 0 0 0 0 0 0 0 0 0 0 0 0 0
0 0 0 0 0 0 0 0 0 0 0 0 0 0 0 0 0 0 0 0 0 0 0 0 0 0 0 0 0 0 0 0 0 0 0 0 0 0 0 0 0 0 0 0
0 0 0 0 0 0 0 0 0 0 0 0 0 0 0 0 0 0 0 0 0 0 0 0 0 0 0 0 0 0 0 0 0 0 0 0 0 0 0 0 0 0 0 0
0 0 0 0 0 0 0 0 0 0 0 0 0 0 0 0 0 0 0 0 0 0 0 0 0 0 0 0 0 0 0 0 0 0 0 0 0 0 0 0 0 0 0 0
0 0 0 0 0 0 0 0 0 0 0 0 0 0 0 0 0 0 0 0 0 0 0 0 0 0 0 0 0 0 0 0 0 0 0 0 0 0 0 0 0 0 0 0
0 0 0 0 0 0 0 0 0 0 0 0 0 0 0 0 0 0 0 0 0 0 0 0 0 0 0 0 0 0 0 0 0 0 0 0 0 0 0 0 0 0 0 0
0 0 0 0 0 0 0 0 0 0 0 0 0 0 0 0 0 0 0 0 0 0 0 0 0 0 0 0 0 0 0 0 0 0 0 0 0 0 0 0 0 0 0 0
0 0 0 0 0 0 0 0 0 0 0 0 0 0 0 0 0 0 0 0 0 0 0 0 0 0 0 0 0 0 0 0 0 0 0 0 0 0 0 0 0 0 0 0
0 0 0 0 0 0 0 0 0 0 0 0 0 0 0 0 0 0 0 0 0 0 0 0 0 0 0 0 0 0 0 0 0 0 0 0 0 0 0 0 0 0 0 0
0 0 0 0 0 0 0 0 0 0 0 0 0 0 0 0 0 0 0 0 0 0 0 0 0 0 0 0 0 0 0 0 0 0 0 0 0 0 0 0 0 0 0 0
0 0 0 0 0 0 0 0 0 0 0 0 0 0 0 0 0 0 0 0 0 0 0 0 0 0 0 0 0 0 0 0 0 0 0 0 0 0 0 0 0 0 0 0
0 0 0 0 0 0 0 0 0 0 0 0 0 0 0 0 0 0 0 0 0 0 0 0 0 0 0 0 0 0 0 0 0 0 0 0 0 0 0 0 0 0 0 0
Height
5677 5679 5679 5680 5679 5680 5680 5681 5683 5684 5685 5686 5688 5691 5693 5694 5696 5698 5699 5701 5703 5705 5706 5707 5709 5710 5711 5713 5714 5714 5715 5716 5717 5718 5720 5720 5721 5722 5723 5724 5725 5726 5727 5728
5668 5669 5669 5668 5669 5669 5670 5671 5672 5673 5673 5675 5676 5679 5682 5683 5685 5686 5688 5690 5692 5693 5694 5696 5697 5698 5700 5701 5702 5703 5704 5705 5706 5707 5708 5709 5710 5711 5712 5712 5714 5715 5716 5717
5658 5659 5658 5658 5658 5659 5659 5661 5662 5662 5662 5663 5665 5668 5670 5672 5673 5674 5676 5678 5679 5681 5682 5683 5685 5686 5688 5689 5690 5691 5692 5693 5694 5695 5696 5697 5698 5699 5700 5701 5702 5702 5703 5705
5646 5647 5647 5647 5648 5648 5649 5650 5650 5650 5650 5651 5653 5653 5659 5660 5661 5662 5664 5666 5667 5669 5670 5671 5672 5674 5675 5676 5677 5678 5679 5680 5681 5682 5683 5684 5686 5687 5688 5688 5689 5690 5691 5692
5636 5636 5636 5636 5637 5637 5638 5638 5638 5638 5638 5639 5641 5641 5646 5647 5649 5651 5652 5653 5654 5656 5657 5658 5660 5661 5662 5663 5664 5665 5666 5667 5668 5669 5670 5671 5672 5673 5674 5675 5676 5677 5678 5679
5625 5625 5625 5626 5626 5626 5626 5626 5626 5626 5626 5628 5631 5630 5633 5636 5638 5639 5640 5641 5642 5643 5645 5646 5647 5648 5649 5650 5651 5651 5653 5654 5654 5655 5656 5657 5659 5659 5660 5661 5662 5663 5664 5666
5615 5615 5614 5615 5615 5615 5615 5616 5615 5614 5614 5617 5619 5618 5622 5625 5627 5628 5629 5629 5630 5631 5632 5632 5633 5635 5635 5636 5637 5638 5639 5640 5640 5641 5642 5643 5644 5645 5646 5647 5648 5649 5651 5652
5604 5605 5605 5604 5605 5605 5605 5605 5606 5605 5605 5606 5607 5608 5613 5614 5615 5616 5617 5618 5618 5619 5619 5620 5621 5622 5622 5623 5623 5624 5624 5626 5626 5627 5628 5629 5629 5630 5631 5632 5633 5634 5636 5638
5595 5595 5595 5595 5594 5595 5594 5595 5596 5595 5594 5594 5595 5598 5601 5603 5603 5604 5605 5606 5606 5607 5607 5608 5609 5609 5609 5609 5610 5610 5610 5611 5612 5612 5613 5614 5614 5615 5616 5617 5618 5620 5621 5624
5585 5585 5585 5585 5585 5585 5585 5585 5585 5584 5583 5583 5585 5588 5591 5592 5592 5593 5594 5594 5594 5595 5595 5596 5596 5596 5596 5596 5596 5596 5596 5597 5597 5597 5598 5598 5599 5600 5601 5602 5603 5605 5607 5609
5575 5575 5575 5575 5575 5576 5576 5576 5575 5574 5574 5574 5574 5580 5581 5581 5581 5581 5582 5582 5582 5583 5583 5583 5583 5583 5583 5583 5583 5583 5583 5583 5583 5583 5583 5584 5584 5586 5586 5587 5588 5590 5591 5593
5566 5565 5565 5566 5566 5565 5565 5566 5566 5565 5565 5564 5564 5571 5571 5570 5570 5569 5570 5570 5571 5571 5571 5571 5571 5571 5570 5570 5570 5570 5570 5570 5569 5569 5569 5569 5570 5570 5571 5572 5573 5574 5576 5578
5556 5555 5554 5555 5558 5557 5556 5556 5556 5555 5555 5554 5555 5561 5560 5559 5558 5558 5558 5559 5559 5559 5559 5559 5559 5558 5558 5558 5557 5557 5557 5556 5556 5555 5555 5555 5555 5555 5556 5557 5558 5558 5560 5562
5546 5545 5546 5546 5547 5546 5546 5547 5546 5545 5544 5545 5546 5549 5551 5549 5548 5548 5548 5548 5548 5547 5547 5547 5547 5546 5546 5545 5545 5544 5543 5542 5542 5541 5541 5540 5540 5540 5540 5541 5542 5543 5545 5547
5537 5537 5536 5536 5536 5536 5537 5537 5536 5536 5536 5536 5538 5539 5541 5539 5538 5537 5537 5537 5536 5536 5536 5535 5535 5534 5533 5533 5532 5531 5530 5529 5528 5527 5527 5526 5526 5525 5525 5526 5526 5528 5529 5531
5528 5528 5528 5528 5528 5526 5527 5528 5527 5527 5527 5527 5527 5529 5530 5528 5527 5527 5526 5525 5525 5525 5524 5524 5523 5522 5521 5520 5519 5518 5517 5516 5514 5513 5513 5512 5511 5511 5511 5511 5511 5512 5513 5515
5520 5520 5519 5519 5519 5517 5518 5520 5519 5519 5519 5518 5518 5520 5519 5518 5517 5516 5515 5514 5514 5513 5513 5512 5511 5510 5509 5508 5506 5505 5504 5502 5500 5499 5498 5497 5497 5496 5496 5496 5495 5496 5497 5499
5512 5511 5510 5509 5510 5508 5513 5512 5511 5510 5510 5509 5508 5509 5508 5507 5507 5506 5504 5504 5503 5502 5501 5500 5499 5498 5496 5495 5493 5492 5490 5488 5486 5485 5484 5483 5482 5482 5481 5480 5480 5481 5481 5483
5503 5503 5501 5501 5500 5499 5503 5502 5501 5500 5501 5500 5499 5498 5498 5497 5497 5496 5494 5493 5492 5491 5490 5488 5487 5486 5484 5482 5480 5478 5477 5475 5473 5471 5470 5469 5468 5467 5467 5466 5466 5466 5466 5468
5496 5495 5495 5493 5491 5491 5495 5494 5492 5492 5491 5491 5489 5488 5487 5486 5486 5487 5484 5482 5481 5479 5478 5476 5475 5474 5472 5470 5467 5466 5464 5462 5460 5458 5456 5455 5454 5453 5453 5452 5452 5452 5452 5453
5488 5487 5486 5485 5483 5483 5486 5484 5483 5484 5484 5481 5480 5478 5477 5476 5476 5475 5473 5471 5470 5468 5466 5465 5463 5461 5459 5457 5455 5453 5451 5449 5447 5445 5443 5442 5441 5440 5440 5439 5438 5438 5438 5440
5480 5480 5479 5478 5476 5479 5478 5476 5475 5474 5473 5471 5470 5469 5468 5467 5465 5464 5462 5461 5459 5457 5455 5453 5451 5449 5447 5444 5443 5441 5439 5437 5434 5433 5431 5430 5428 5427 5426 5426 5425 5425 5425 5426
5473 5473 5472 5471 5472 5470 5468 5467 5466 5464 5463 5462 5460 5459 5458 5457 5455 5454 5452 5450 5448 5446 5444 5441 5439 5437 5435 5433 5430 5428 5426 5424 5422 5420 5419 5417 5416 5415 5414 5413 5413 5413 5413 5413
5466 5466 5464 5463 5463 5462 5460 5459 5457 5456 5454 5453 5451 5450 5449 5447 5445 5444 5442 5440 5437 5435 5433 5431 5428 5426 5424 5422 5419 5417 5414 5412 5410 5409 5408 5406 5405 5403 5402 5401 5401 5401 5401 5402
5460 5458 5456 5456 5456 5454 5453 5451 5449 5447 5446 5444 5443 5441 5439 5437 5436 5434 5432 5429 5427 5425 5423 5420 5418 5416 5413 5411 5409 5406 5404 5402 5400 5398 5397 5395 5394 5392 5392 5391 5391 5391 5391 5391
5453 5451 5450 5449 5448 5446 5445 5443 5441 5439 5438 5436 5434 5432 5430 5428 5426 5424 5422 5419 5417 5415 5413 5411 5408 5406 5404 5401 5399 5397 5394 5392 5391 5389 5387 5385 5383 5382 5382 5382 5381 5381 5381 5381
Wind_Speed
37 37 36 36 37 38 39 39 40 40 41 42 42 42 41 41 42 42 42 42 42 42 43 43 43 43 43 43 43 43 43 44 44 43 43 43 43 43 44 44 43 43 43 42
37 38 37 37 38 39 40 40 40 41 41 42 42 42 42 42 43 43 44 44 44 44 44 44 45 45 45 45 45 45 45 45 46 45 45 45 45 45 45 45 45 45 45 44
39 38 38 38 39 40 40 40 40 41 42 43 44 43 42 43 43 44 44 45 45 45 45 46 46 46 46 46 46 46 46 47 47 47 47 47 47 47 47 47 47 47 47 46
39 39 39 39 40 40 40 40 41 42 43 44 44 46 42 42 43 43 44 45 45 46 46 47 47 47 47 47 47 47 48 48 49 49 49 48 48 48 48 47 48 49 49 48
39 39 39 40 40 40 41 41 42 42 44 45 44 47 44 42 42 42 43 44 45 46 47 47 47 47 48 48 48 49 49 50 49 50 50 50 49 49 49 48 49 50 50 50
39 40 40 40 40 40 40 41 42 43 44 45 43 45 45 42 41 41 42 43 44 45 46 47 47 48 48 48 48 49 49 50 50 50 50 51 51 51 51 50 51 51 51 51
37 37 38 38 39 39 40 40 41 43 44 45 43 44 44 41 40 40 40 42 43 44 45 46 46 47 47 48 48 49 50 50 50 51 51 51 51 52 52 52 52 52 52 51
37 36 36 37 37 38 38 39 40 42 44 44 44 44 42 40 39 39 40 41 42 43 44 44 45 45 47 48 48 49 50 50 51 51 51 52 52 52 52 52 52 52 53 53
36 36 35 35 36 37 37 38 39 41 43 44 44 43 41 40 39 39 39 40 41 42 43 44 44 45 46 46 47 48 49 49 50 50 51 52 52 52 52 52 53 53 53 53
35 35 35 34 35 36 37 37 37 39 42 43 43 42 41 39 39 39 40 41 41 41 42 43 44 44 45 46 46 47 47 48 49 50 51 52 53 53 53 53 53 53 54 54
35 35 35 35 35 35 36 36 37 39 41 42 43 41 39 40 40 40 41 41 41 42 42 43 43 44 45 45 46 47 47 48 49 50 51 52 53 53 54 54 53 54 54 54
35 36 36 35 35 35 36 36 36 38 40 42 43 41 39 40 39 40 40 41 41 42 42 42 43 44 45 45 46 47 48 48 49 49 50 52 53 53 53 53 54 55 55 54
34 36 37 36 35 35 36 35 36 38 39 41 42 40 38 38 38 39 40 40 40 41 41 41 42 43 44 44 45 46 48 48 49 50 50 51 52 52 53 53 53 54 54 54
33 34 35 36 36 35 35 35 36 37 39 40 39 38 36 36 37 37 38 38 39 39 40 41 41 42 43 44 45 46 47 48 49 49 50 50 51 52 53 53 53 53 54 54
32 33 33 34 35 36 35 35 36 36 37 38 37 37 35 35 37 37 38 38 38 39 39 40 41 42 43 43 44 45 46 47 48 49 49 49 50 51 52 52 52 53 53 54
32 33 33 33 33 34 35 35 35 35 36 36 36 36 35 36 37 37 38 38 38 38 39 39 40 41 42 43 44 45 46 47 47 48 49 49 50 50 51 51 52 53 54 55
32 32 33 33 32 33 34 33 33 34 35 36 36 36 36 37 38 38 39 39 39 39 39 39 40 41 42 43 44 45 46 46 47 48 48 49 49 50 50 50 51 53 54 55
31 31 32 33 33 34 33 32 32 33 33 34 35 35 37 38 38 38 38 38 39 39 39 40 40 41 41 42 43 44 45 45 46 47 47 48 49 49 49 50 50 51 52 53
30 29 30 31 32 33 32 31 31 32 32 33 35 35 36 37 37 37 39 39 39 39 39 39 40 40 41 42 42 43 43 44 44 45 45 46 47 47 48 48 49 49 50 51
29 29 29 30 31 32 30 30 31 32 32 31 33 34 35 36 36 35 37 38 39 39 39 40 40 41 41 42 42 43 43 43 44 45 45 45 45 45 46 46 47 47 47 48
28 28 29 30 31 31 29 29 30 31 32 32 32 34 34 34 35 35 36 38 38 39 39 40 40 41 41 42 43 43 43 44 44 44 44 44 45 44 44 44 44 44 45 45
26 28 28 29 31 30 29 29 30 31 31 31 32 33 34 34 34 35 35 36 37 37 38 38 39 40 41 42 42 43 43 44 43 42 42 42 42 43 42 41 41 42 42 43
26 26 27 28 29 28 29 30 30 31 31 31 32 33 33 33 34 34 35 36 36 36 37 37 38 38 39 39 40 42 42 42 42 41 40 40 40 40 40 39 39 39 40 40
26 27 27 27 27 27 28 28 29 30 31 32 32 33 33 33 33 33 34 34 35 35 35 35 36 36 37 38 39 40 40 40 39 38 38 38 38 38 37 37 37 37 38 38
25 26 26 27 26 26 26 27 28 29 31 32 32 32 32 33 34 34 34 34 34 33 33 34 35 36 36 37 36 37 37 36 36 37 37 37 37 36 35 35 34 35 35 35
25 25 25 25 26 27 27 27 28 29 30 30 31 31 31 32 32 33 32 32 32 32 32 33 33 34 34 34 33 34 34 34 34 35 35 34 34 34 34 33 33 33 34 34
Wind_Direction
264 263 264 265 264 263 261 260 259 258 257 257 256 255 253 253 254 255 255 256 256 257 257 258 258 259 259 259 260 261 261 262 262 261 261 262 262 262 262 262 262 262 262 261
265 265 266 265 264 264 263 262 261 260 259 258 257 256 255 255 255 255 255 256 257 258 258 258 258 259 259 260 260 261 262 262 262 262 262 262 262 262 262 262 262 262 261 262
267 267 266 265 264 264 263 263 263 262 261 260 259 256 256 256 256 256 257 257 257 258 258 258 259 259 260 261 261 261 262 262 262 263 263 262 262 262 263 263 262 262 261 261
268 266 266 265 264 264 264 264 264 263 262 261 260 260 257 258 257 257 258 258 258 258 259 259 260 260 260 260 261 261 262 262 262 262 262 262 262 262 263 263 262 261 261 260
269 267 266 265 265 265 264 263 264 264 264 263 262 262 259 259 259 259 259 259 259 259 260 260 260 260 261 261 261 261 262 262 262 261 261 261 261 261 263 264 263 261 260 259
269 268 267 266 265 265 264 264 263 263 264 263 263 264 263 262 262 262 261 260 261 261 261 261 260 261 261 261 261 261 261 261 261 261 261 261 261 262 263 264 263 261 259 259
270 269 268 267 265 264 264 265 265 264 264 265 265 265 266 266 264 263 262 262 262 262 262 261 261 261 262 262 261 261 261 262 262 261 261 261 261 262 263 263 262 260 258 258
272 271 269 268 267 267 266 265 266 267 267 267 266 266 267 267 266 264 263 263 263 263 262 262 262 262 263 263 262 263 263 263 262 262 261 261 262 262 262 263 261 259 258 257
274 272 270 269 268 267 266 266 266 267 267 267 266 266 265 266 266 264 264 263 264 264 264 264 264 264 264 264 264 263 263 263 263 262 262 262 261 262 262 262 261 259 258 257
276 274 271 270 268 267 267 267 267 266 267 268 268 267 267 266 265 265 264 264 264 264 264 265 265 265 264 264 264 264 264 263 264 263 263 262 261 261 261 262 261 259 258 258
276 274 271 269 269 268 267 267 267 266 266 268 269 269 268 269 269 267 267 266 265 265 265 265 265 265 265 265 265 265 265 265 265 265 264 262 261 262 262 262 261 260 259 258
275 274 272 270 270 268 267 267 267 267 267 267 269 271 271 271 271 269 268 267 267 268 267 267 267 266 266 266 266 266 267 267 267 266 265 264 263 263 262 262 262 260 259 258
276 273 271 270 269 268 267 267 268 268 267 267 269 271 272 273 271 270 269 269 269 269 269 269 269 268 267 267 268 268 268 269 268 268 267 266 266 265 263 264 263 261 259 258
275 273 272 272 272 271 270 268 268 268 268 270 270 270 270 272 271 271 271 271 271 270 270 269 269 269 269 269 269 270 270 270 270 269 268 268 267 267 266 265 263 262 259 259
273 272 273 273 272 270 269 268 267 268 269 269 270 269 269 270 271 270 270 270 270 270 270 270 270 270 270 271 271 272 272 272 272 271 270 269 269 268 268 266 264 262 261 260
273 272 272 272 272 271 270 269 268 267 268 269 270 270 269 269 271 272 271 271 271 271 271 271 272 272 272 272 273 273 273 273 272 271 270 270 270 269 268 267 265 263 262 261
273 273 272 272 273 273 271 271 269 268 268 270 271 271 270 270 271 273 273 273 272 272 272 272 273 273 273 274 274 274 273 273 273 272 271 271 270 270 269 269 267 265 263 261
273 273 273 275 274 273 276 274 272 271 270 271 272 272 271 272 273 274 274 274 274 273 273 273 273 273 274 275 275 274 274 274 273 272 272 271 271 270 270 269 268 266 264 262
273 274 273 273 274 275 276 276 275 274 273 272 272 272 272 273 274 274 275 275 275 275 275 275 274 273 274 274 275 275 274 274 273 273 273 272 272 271 271 270 269 267 266 263
273 273 274 274 276 277 278 276 275 276 275 275 275 275 275 276 276 274 275 276 276 276 277 277 276 275 275 275 275 275 275 275 274 274 274 273 273 273 272 272 271 268 266 264
274 273 275 277 278 278 279 278 277 277 279 277 277 276 277 278 278 277 277 277 278 278 278 278 278 277 277 277 275 275 276 276 276 276 275 275 274 274 273 271 270 268 266 264
277 278 279 280 281 282 282 280 278 279 280 280 279 278 279 279 280 280 280 280 280 280 279 279 279 279 279 279 277 277 277 277 277 277 276 275 275 275 273 271 269 268 267 265
279 279 281 282 282 284 283 282 280 279 280 280 280 280 281 280 281 281 281 282 282 282 281 280 280 280 281 280 280 280 279 278 277 277 276 276 276 275 273 271 270 268 267 265
280 281 281 281 283 284 283 282 282 281 281 280 281 281 280 281 283 284 284 284 283 283 282 281 282 281 281 281 282 282 281 279 278 277 277 276 276 276 273 272 270 268 266 264
282 281 281 281 282 283 284 283 282 282 283 282 282 282 282 283 284 285 286 286 284 283 283 282 283 283 282 283 283 283 282 280 279 279 279 278 276 275 273 272 270 268 267 266
284 282 282 283 282 282 284 283 283 284 284 284 285 286 285 285 285 286 287 288 286 285 285 284 284 284 284 283 283 283 283 282 281 280 280 279 277 275 272 269 270 270 269 267